[[{"header":{"parameterUnit":"m.s-1","parameterCategory":1,"la1":30.2991,"la2":30.254,"lo1":-89.0895,"lo2":-89.0444,"dy":0.0017,"dx":0.0017,"nx":28,"ny":28,"refTime":"2024-03-07T09:00:00:Z","depth":0,"parameterNumber":2,"parameterNumberName":"U-component_of_WINDS"},"data":[0,0,0,0,0,0,0,0,0,0,0,0,0,0,0,0,0,0,0,0,0,0,0,0,0,0,0,0,0,0,0,0,0,0,0,0,0,0,0,0,0,0,0,0,0,0,0,0,0,0,0,0,0,0,0,0,0,0,-3.4319,-3.4319,0,-3.4274,-3.4274,-3.4273,-3.4177,-3.4175,-3.4173,-3.4171,-3.4127,-3.4128,-3.4129,0,0,0,0,0,0,0,0,0,0,0,0,0,-3.4327,-3.4327,-3.4319,-3.4319,-3.4318,-3.4274,-3.4274,-3.4273,-3.4177,-3.4175,-3.4172,-3.417,-3.4127,-3.4128,-3.4129,0,0,0,0,0,0,0,0,0,0,0,0,0,-3.4307,-3.4327,-3.4319,-3.4265,-3.426,-3.4274,-3.4274,-3.4273,-3.4178,-3.4175,-3.4172,-3.4169,-3.4127,-3.4128,-3.4129,-3.4194,0,0,-3.4132,-3.4132,0,0,0,0,0,0,0,0,-3.4308,-3.4307,-3.4274,-3.4269,-3.4263,-3.4228,-3.426,-3.4246,-3.4178,-3.4209,-3.4171,-3.4168,-3.4164,-3.4161,-3.4159,-3.4192,-3.419,-3.4132,-3.4133,-3.4133,-3.4133,0,0,0,0,0,0,0,-3.431,-3.4308,-3.4301,-3.4273,-3.4267,-3.4244,-3.4238,-3.4257,-3.4203,-3.4206,-3.4199,-3.4195,-3.416,-3.4159,-3.4158,-3.4189,-3.4132,-3.4133,-3.4134,-3.4134,-3.4275,-3.4278,0,0,0,0,0,0,-3.4318,-3.431,-3.4303,-3.43,-3.4279,-3.4246,-3.424,-3.4242,-3.4203,-3.4194,-3.4197,-3.419,-3.4158,-3.4157,-3.4156,-3.423,-3.4133,-3.4134,-3.4135,-3.4272,-3.4276,-3.4279,0,0,0,0,0,0,-3.4319,-3.4319,-3.4305,-3.4303,-3.43,-3.4249,-3.4253,-3.4243,-3.4241,-3.4196,-3.4186,-3.4205,-3.4156,-3.4154,-3.4185,-3.4227,-3.4134,-3.4135,-3.4268,-3.4273,-3.4277,-3.4379,0,0,0,0,0,0,-3.432,-3.4319,-3.4342,-3.4304,-3.43,-3.4334,-3.4256,-3.4244,-3.4243,-3.4234,-3.4201,-3.4193,-3.4154,-3.4184,-3.4186,-3.4227,-3.4136,-3.4264,-3.427,-3.4276,-3.4372,-3.4387,-3.44,0,0,0,0,0,-3.432,-3.4373,-3.4344,-3.4344,-3.4327,-3.4337,-3.4334,-3.4287,-3.4247,-3.427,-3.4242,-3.4194,-3.4223,-3.4188,-3.419,-3.4231,-3.4261,-3.4269,-3.4275,-3.4366,-3.4384,-3.4399,0,0,0,0,0,0,-3.4417,-3.4367,-3.4334,-3.4376,-3.4361,-3.432,-3.4348,-3.4307,-3.4304,-3.4296,-3.4238,-3.4232,-3.4271,-3.4254,-3.4217,-3.4293,-3.4234,-3.4242,-3.4303,-3.432,-3.4333,-3.4337,-3.4137,0,0,0,0,0,-3.4444,-3.4454,-3.441,-3.4451,-3.4445,-3.4399,-3.4401,-3.4366,-3.4349,-3.4342,-3.4315,-3.4302,-3.4308,-3.4313,-3.4315,-3.4369,-3.4362,-3.4399,-3.4413,-3.4425,-3.4432,-3.4462,-3.4478,-3.4302,-3.4302,-3.4302,0,0,-3.4498,-3.4472,-3.4482,-3.447,-3.4454,-3.4468,-3.4394,-3.4411,-3.4421,-3.4345,-3.4372,-3.4353,-3.4334,-3.4378,-3.4395,-3.4365,-3.4479,-3.4434,-3.4443,-3.4444,-3.4471,-3.4487,-3.4502,-3.4307,-3.4306,-3.4306,0,0,-3.4604,-3.4585,-3.4618,-3.4604,-3.4582,-3.4551,-3.4559,-3.4525,-3.4509,-3.4536,-3.4479,-3.4492,-3.4502,-3.4492,-3.4488,-3.4593,-3.455,-3.4596,-3.4669,-3.4698,-3.4712,-3.4724,-3.4763,-3.4778,-3.4604,-3.4604,-3.4604,0,-3.4674,-3.4692,-3.464,-3.4661,-3.4659,-3.4591,-3.4625,-3.4614,-3.4595,-3.4595,-3.4561,-3.4575,-3.4557,-3.4598,-3.4624,-3.4623,-3.4632,-3.4599,-3.4714,-3.4726,-3.4736,-3.4773,-3.4788,-3.461,-3.4609,-3.4608,-3.4608,0,-3.478,-3.4794,-3.4823,-3.4806,-3.4807,-3.4835,-3.4789,-3.4796,-3.4762,-3.4735,-3.4765,-3.4742,-3.474,-3.4747,-3.4713,-3.4784,-3.4766,-3.4724,-3.4664,-3.4759,-3.4793,-3.4807,-3.4618,-3.4616,-3.4614,-3.4613,0,0,-3.4945,-3.49,-3.4912,-3.4904,-3.4876,-3.4886,-3.4912,-3.4909,-3.4918,-3.4907,-3.4929,-3.4941,-3.4902,-3.4898,-3.4863,-3.4889,-3.4977,-3.4844,-3.4843,-3.4871,-3.5056,-3.5088,-3.5105,-3.4948,-3.4951,-3.4953,-3.5058,0,-3.5045,-3.5085,-3.5041,-3.5091,-3.5104,-3.5041,-3.5064,-3.505,-3.5027,-3.5035,-3.5009,-3.502,-3.4967,-3.4965,-3.4987,-3.4961,-3.5013,-3.4953,-3.4969,-3.4971,-3.4977,-3.5122,-3.5156,-3.5256,-3.507,-3.5073,-3.5074,0,-3.5166,-3.5162,-3.5214,-3.5184,-3.5188,-3.5209,-3.5205,-3.5213,-3.5198,-3.5179,-3.5176,-3.5134,-3.516,-3.5101,-3.5137,-3.5097,-3.5101,-3.509,-3.5093,-3.5093,-3.5028,-3.5127,-3.5286,-3.5302,-3.5094,-3.5092,-3.5091,0,-3.5282,-3.5289,-3.5322,-3.5317,-3.5283,-3.53,-3.5287,-3.5268,-3.5271,-3.5267,-3.5269,-3.5269,-3.5269,-3.5271,-3.5232,-3.5193,-3.5274,-3.5211,-3.526,-3.5261,-3.528,-3.5279,-3.5443,-3.5282,-3.5282,-3.5281,-3.5281,0,-3.5399,-3.5433,-3.5374,-3.5394,-3.5432,-3.5381,-3.5421,-3.5401,-3.5386,-3.5402,-3.5348,-3.5365,-3.5312,-3.5324,-3.5293,-3.5329,-3.5329,-3.5316,-3.5307,-3.5321,-3.5323,-3.5323,-3.5316,-3.5285,-3.5284,-3.5284,-3.5283,0,-3.5535,-3.5496,-3.5527,-3.5494,-3.5486,-3.5516,-3.5487,-3.5505,-3.5479,-3.5501,-3.5503,-3.5463,-3.5474,-3.5435,-3.5441,-3.542,-3.5473,-3.5452,-3.5478,-3.5472,-3.5524,-3.552,-3.5694,-3.5715,-3.554,-3.5542,-3.5543,0,-3.5612,-3.5637,-3.5606,-3.5613,-3.5603,-3.5615,-3.5617,-3.557,-3.5575,-3.5561,-3.5581,-3.5588,-3.5591,-3.5614,-3.5586,-3.559,-3.557,-3.5631,-3.5571,-3.5584,-3.5573,-3.5572,-3.5575,-3.5644,-3.5646,-3.5648,-3.5649,0,-3.5753,-3.5733,-3.5738,-3.5738,-3.5742,-3.5739,-3.5733,-3.5742,-3.5692,-3.5701,-3.5712,-3.5714,-3.5721,-3.5729,-3.5728,-3.5716,-3.5676,-3.5668,-3.568,-3.5694,-3.5709,-3.5703,-3.5513,-3.5664,-3.5663,-3.5662,-3.5661,-3.566,-3.5862,-3.5883,-3.5865,-3.5873,-3.5864,-3.586,-3.5876,-3.5852,-3.586,-3.5861,-3.5833,-3.5851,-3.5837,-3.5832,-3.5824,-3.5839,-3.5811,-3.5827,-3.5832,-3.5837,-3.5846,-3.5706,-3.5838,-3.5838,-3.5837,-3.5837,-3.5837,0,-3.6002,-3.5988,-3.5996,-3.5989,-3.5997,-3.5957,-3.5949,-3.5958,-3.5974,-3.5964,-3.5969,-3.5983,-3.5992,-3.5966,-3.5971,-3.5988,-3.597,-3.5991,-3.599,-3.5988,-3.587,-3.586,-3.6006,-3.6006,-3.6006,-3.6006,-3.6006,-3.6006,-3.6075,-3.6108,-3.6087,-3.6116,-3.6102,-3.6118,-3.6117,-3.6114,-3.6106,-3.6125,-3.6132,-3.6114,-3.6099,-3.6103,-3.6111,-3.6103,-3.6108,-3.6137,-3.6123,-3.6013,-3.5996,-3.598,-3.5971,-3.6138,-3.6138,-3.6239,-3.624,-3.6241]},{"header":{"parameterUnit":"m.s-1","parameterCategory":1,"la1":30.2991,"la2":30.254,"lo1":-89.0895,"lo2":-89.0444,"dy":0.0017,"dx":0.0017,"nx":28,"ny":28,"refTime":"2024-03-07T09:00:00:Z","depth":0,"parameterNumber":3,"parameterNumberName":"V-component_of_WINDS"},"data":[0,0,0,0,0,0,0,0,0,0,0,0,0,0,0,0,0,0,0,0,0,0,0,0,0,0,0,0,0,0,0,0,0,0,0,0,0,0,0,0,0,0,0,0,0,0,0,0,0,0,0,0,0,0,0,0,0,0,1.3697,1.3697,0,1.3674,1.3674,1.3673,1.3714,1.3715,1.3716,1.3718,1.3691,1.3689,1.3687,0,0,0,0,0,0,0,0,0,0,0,0,0,1.3773,1.3772,1.3697,1.3697,1.3696,1.3674,1.3674,1.3673,1.3713,1.3715,1.3717,1.3718,1.3692,1.3689,1.3687,0,0,0,0,0,0,0,0,0,0,0,0,0,1.3744,1.3771,1.3697,1.3714,1.3715,1.3674,1.3674,1.3673,1.3713,1.3715,1.3717,1.3719,1.3693,1.369,1.3687,1.3627,0,0,1.3678,1.3676,0,0,0,0,0,0,0,0,1.3746,1.3741,1.3711,1.3712,1.3714,1.3699,1.3691,1.3658,1.3713,1.3714,1.3718,1.372,1.3692,1.3689,1.368,1.3626,1.3625,1.3677,1.3676,1.3674,1.3673,0,0,0,0,0,0,0,1.3748,1.3742,1.3688,1.3711,1.3712,1.3722,1.372,1.3685,1.3691,1.3714,1.3717,1.3714,1.3693,1.3683,1.368,1.3625,1.3677,1.3675,1.3673,1.3672,1.3522,1.352,0,0,0,0,0,0,1.3748,1.3744,1.3688,1.3687,1.3735,1.3719,1.3717,1.3702,1.3692,1.3693,1.3712,1.3716,1.3687,1.3683,1.3679,1.361,1.3674,1.3672,1.367,1.3524,1.3521,1.3519,0,0,0,0,0,0,1.3749,1.3743,1.3689,1.3716,1.371,1.3715,1.3698,1.37,1.369,1.3691,1.3692,1.3701,1.3688,1.3683,1.364,1.3609,1.367,1.3668,1.3527,1.3523,1.352,1.347,0,0,0,0,0,0,1.3751,1.3743,1.3721,1.3715,1.3709,1.3652,1.3696,1.3698,1.3685,1.369,1.368,1.3681,1.369,1.3645,1.3637,1.3606,1.3665,1.3529,1.3525,1.3521,1.3474,1.3465,1.3457,0,0,0,0,0,1.3754,1.3707,1.3719,1.3712,1.3681,1.365,1.3646,1.3658,1.3683,1.366,1.3661,1.3681,1.3614,1.364,1.3632,1.3599,1.3531,1.3526,1.3521,1.3478,1.3467,1.3457,0,0,0,0,0,0,1.3706,1.3706,1.372,1.367,1.366,1.3657,1.3629,1.3646,1.3627,1.3632,1.3647,1.3645,1.3599,1.3595,1.3624,1.3542,1.3577,1.357,1.3546,1.3536,1.3527,1.3529,1.3663,0,0,0,0,0,1.3691,1.3666,1.3666,1.3622,1.3616,1.3623,1.361,1.362,1.361,1.3605,1.3603,1.3591,1.3568,1.3551,1.353,1.3474,1.3473,1.3448,1.3439,1.3432,1.3426,1.3397,1.3386,1.3503,1.3503,1.3503,0,0,1.3656,1.3653,1.3636,1.3612,1.3606,1.3579,1.3619,1.3589,1.357,1.3601,1.356,1.3558,1.3546,1.3497,1.3475,1.3492,1.3394,1.3426,1.3421,1.3418,1.3391,1.338,1.337,1.3499,1.35,1.35,0,0,1.3581,1.3576,1.3539,1.3532,1.3522,1.3527,1.3518,1.3513,1.3513,1.3473,1.3496,1.3473,1.3431,1.3422,1.3412,1.3335,1.3353,1.3327,1.3283,1.3254,1.3245,1.3237,1.3209,1.3199,1.3321,1.3321,1.3321,0,1.354,1.3502,1.3517,1.3486,1.3475,1.3504,1.3466,1.3458,1.344,1.3432,1.3452,1.3402,1.3395,1.3345,1.3326,1.3317,1.3307,1.3328,1.3245,1.3237,1.323,1.3204,1.3193,1.3318,1.3318,1.3318,1.3319,0,1.3452,1.3425,1.3396,1.338,1.3366,1.3331,1.3341,1.3325,1.3337,1.334,1.3299,1.3293,1.3271,1.326,1.327,1.321,1.3221,1.3243,1.3278,1.3215,1.3191,1.3181,1.3313,1.3315,1.3315,1.3316,0,0,1.3345,1.3339,1.3328,1.3322,1.3314,1.3293,1.326,1.324,1.3225,1.3212,1.3185,1.315,1.3171,1.3159,1.3169,1.3144,1.3083,1.3169,1.3169,1.3153,1.3017,1.3001,1.2989,1.3096,1.3094,1.3092,1.3018,0,1.327,1.3215,1.3228,1.3173,1.3148,1.3176,1.3147,1.3138,1.314,1.3119,1.3122,1.3097,1.3125,1.3119,1.3095,1.3096,1.3056,1.3101,1.307,1.3068,1.3072,1.2976,1.2959,1.2889,1.3009,1.3007,1.3006,0,1.3176,1.3161,1.3103,1.31,1.309,1.3064,1.3047,1.3027,1.3018,1.3021,1.3009,1.3025,1.2991,1.3027,1.2982,1.3012,1.3,1.2998,1.2996,1.2993,1.3033,1.2971,1.2867,1.2857,1.2991,1.2992,1.2994,0,1.3104,1.3069,1.3031,1.3025,1.302,1.3001,1.2998,1.2991,1.2978,1.2963,1.2955,1.2935,1.2924,1.2909,1.2918,1.2944,1.2871,1.2908,1.2872,1.2872,1.2855,1.2856,1.2748,1.2848,1.2848,1.2848,1.2848,0,1.3019,1.2983,1.2999,1.2975,1.2935,1.2951,1.2911,1.2911,1.2905,1.2881,1.2903,1.288,1.2894,1.2872,1.2879,1.2841,1.2836,1.2837,1.2839,1.2835,1.2835,1.2827,1.2832,1.2845,1.2846,1.2847,1.2847,0,1.2932,1.2941,1.2901,1.29,1.2899,1.287,1.2869,1.2846,1.2851,1.282,1.2814,1.282,1.2796,1.2804,1.2777,1.2782,1.2733,1.2741,1.2736,1.2738,1.2703,1.2706,1.2586,1.2571,1.268,1.2679,1.2678,0,1.2877,1.285,1.2847,1.2833,1.2829,1.2806,1.2794,1.2809,1.2795,1.2783,1.2762,1.2739,1.2722,1.2682,1.2683,1.2663,1.2671,1.263,1.2668,1.2665,1.267,1.2672,1.2669,1.2623,1.2621,1.262,1.2619,0,1.2779,1.2785,1.2767,1.2751,1.2736,1.2723,1.2712,1.2699,1.2714,1.2697,1.2673,1.2659,1.2633,1.261,1.2592,1.2588,1.2606,1.2608,1.2599,1.2594,1.2592,1.2593,1.2716,1.261,1.2611,1.2612,1.2612,1.2613,1.2706,1.2684,1.2678,1.2658,1.2652,1.2641,1.2621,1.2623,1.2604,1.2584,1.2594,1.2566,1.2558,1.2536,1.2529,1.2507,1.2523,1.2509,1.2506,1.2502,1.2498,1.2596,1.2504,1.2504,1.2504,1.2504,1.2505,0,1.2609,1.2608,1.2589,1.2574,1.2557,1.2577,1.2566,1.2551,1.2527,1.2518,1.2502,1.2474,1.2452,1.2453,1.2433,1.2415,1.2422,1.2409,1.241,1.2409,1.2485,1.2495,1.2403,1.2403,1.2403,1.2403,1.2403,1.2403,1.2557,1.2521,1.2526,1.2487,1.2485,1.2459,1.2452,1.2442,1.2436,1.2405,1.2387,1.2388,1.2383,1.2363,1.2344,1.2345,1.2336,1.232,1.2323,1.2394,1.2404,1.2413,1.2423,1.2318,1.2318,1.225,1.2249,1.2249]}]]